Regional Weather Roundup
Issued by NWS

Home | Current Version | Previous Version | Graphics & Text | Print | Product List | Glossary On
Versions: 1 2 3 4 5 6 7 8 9 10 11 12 13 14 15 16 17 18 19 20 21 22 23 24 25 26 27 28 29 30 31 32 33 34 35 36 37 38 39 40 41 42 43 44 45 46 47 48 49 50
885
ASUS44 KJAN 231203
RWRMS

MISSISSIPPI HOURLY WEATHER ROUNDUP
NATIONAL WEATHER SERVICE JACKSON MS
600 AM CST SUN NOV 23 2014

NOTE: "FAIR: INDICATES FEW OR NO CLOUDS BELOW 12,000 FEET WITH NO
SIGNIFICANT WEATHER AND/OR OBSTRUCTIONS TO VISIBILITY.

MSZ001>002-007>008-010>013-018>021-025>028-034>036-231300-
NORTHWEST MISSISSIPPI

CITY           SKY/WX    TMP DP  RH WIND       PRES   REMARKS
CLARKSDALE     CLOUDY    57  57 100 SE13      29.75F
CLEVELAND      CLOUDY    60  59  96 SE13      29.74F
GREENWOOD      CLOUDY    60  58  92 SE5       29.76F
6HR MIN TEMP:  52; 6HR MAX TEMP:  61;

GREENVILLE     CLOUDY    61  58  90 SE14      29.72F
6HR MIN TEMP:  55; 6HR MAX TEMP:  61;

GRENADA        LGT RAIN  55  55 100 E8        29.78F
OLIVE BRANCH   CLOUDY    57  57 100 SE14G21   29.79S
OXFORD         CLOUDY    55  54  94 SE8G17    29.80F FOG
TUNICA         CLOUDY    59  55  88 SE13      29.77S
$$

MSZ003>006-009-014>017-022>024-029>033-037>039-231300-
NORTHEAST MISSISSIPPI

CITY           SKY/WX    TMP DP  RH WIND       PRES   REMARKS
COLUMBUS AFB   CLOUDY    58  56  90 SE10      29.81F
6HR MIN TEMP:  58; 6HR MAX TEMP:  60; 6HR PCP: TRACE;

CORINTH        CLOUDY    57  55  94 SE8       29.82F FOG
GOLDN TRIANGLE DRIZZLE   57  54  88 SE16      29.80F
STARKVILLE     CLOUDY    55  55 100 SE8       29.79F
TUPELO         CLOUDY    58  55  90 MISG      29.82F FOG
6HR MIN TEMP:  58; 6HR MAX TEMP:  62; 6HR PCP:  0.01;

$$

MSZ040-058-231300-
CENTRAL MISSISSIPPI

CITY           SKY/WX    TMP DP  RH WIND       PRES   REMARKS
JACKSON INTL   LGT RAIN  61  59  93 SE9       29.75F
6HR MIN TEMP:  61; 6HR MAX TEMP:  62; 6HR PCP: TRACE;

JACKSON HAWKNS LGT RAIN  61  58  90 SE9       29.75F
6HR MIN TEMP:  61; 6HR MAX TEMP:  61; 6HR PCP: TRACE;

MERIDIAN KEY   CLOUDY    58  57  97 CALM      29.80S FOG
6HR MIN TEMP:  58; 6HR MAX TEMP:  60; 6HR PCP: TRACE;

MERIDIAN NAS   CLOUDY    57  56  96 E9        29.81F FOG
6HR MIN TEMP:  56; 6HR MAX TEMP:  58; 6HR PCP: TRACE;

RAYMOND        CLOUDY    61  57  88 SE9       29.74F
VICKSBURG      LGT RAIN  62  59  90 SE9       29.72F
6HR MIN TEMP:  61; 6HR MAX TEMP:  63; 6HR PCP:  0.01;

$$

MSZ059>079-231300-
SOUTH MISSISSIPPI

CITY           SKY/WX    TMP DP  RH WIND       PRES   REMARKS
BROOKHAVEN     CLOUDY    61  61 100 E5        29.75F FOG
HATTIESBURG    LGT RAIN  60  60 100 CALM      29.78S FOG
6HR MIN TEMP:  60; 6HR MAX TEMP:  62; 6HR PCP:  0.01;

MCCOMB         LGT RAIN  61  60  97 SE7       29.74F FOG
6HR MIN TEMP:  61; 6HR MAX TEMP:  61; 6HR PCP:  0.01;

NATCHEZ        CLOUDY    63  59  88 SE9       29.71F
6HR MIN TEMP:  63; 6HR MAX TEMP:  63; 6HR PCP:  0.06;

PINE BELT      CLOUDY    59  55  88 E3        29.78F
6HR MIN TEMP:  59; 6HR MAX TEMP:  61;

$$

MSZ080>082-231300-
COASTAL MISSISSIPPI

CITY           SKY/WX    TMP DP  RH WIND       PRES   REMARKS
BILOXI         CLOUDY    65  65 100 E3        29.75S
6HR MIN TEMP:  62; 6HR MAX TEMP:  65; 6HR PCP:  0.02;

PASCAGOULA     LGT RAIN  70  69  97 SE12      29.75F
6HR MIN TEMP:  62; 6HR MAX TEMP:  70; 6HR PCP: TRACE;

GULFPORT       CLOUDY    65  64  97 E6        29.74S FOG
6HR MIN TEMP:  62; 6HR MAX TEMP:  65; 6HR PCP:  0.01;

$$



USA.gov is the U.S. government's official web portal to all federal, state and local government web resources and services.